Regional Weather Roundup
Issued by NWS

Home | Current Version | Previous Version | Graphics & Text | Print | Product List | Glossary On
Versions: 1 2 3 4 5 6 7 8 9 10 11 12 13 14 15 16 17 18 19 20 21 22 23 24 25 26 27
000
ASUS45 KBOI 221310
RWRID
WEATHER ROUNDUP FOR IDAHO
NATIONAL WEATHER SERVICE BOISE ID
700 AM MDT TUE APR 22 2014

NOTE: "FAIR" INDICATES FEW OR NO CLOUDS BELOW 12000 FEET
WITH NO SIGNIFICANT WEATHER AND/OR OBSTRUCTIONS TO VISIBILITY

IDZ012-014-221400-
SOUTHWEST IDAHO


CITY           SKY/WX    TMP DP  RH WIND       PRES   REMARKS
BOISE          LGT RAIN  53  38  56 N16G24    29.78R
CALDWELL       CLOUDY    52  36  54 NW7       29.79S
MOUNTAIN HOME  CLOUDY    56  31  38 NW20G26   29.75R
$$

IDZ016-017-221400-
SOUTHCENTRAL IDAHO


CITY           SKY/WX    TMP DP  RH WIND       PRES   REMARKS
BURLEY         MOCLDY    57  37  47 E8        29.70F
JEROME         CLOUDY    57  32  38 NE12      29.70F
TWIN FALLS     MOCLDY    52  36  54 S6        29.71F
$$

IDZ019>023-221400-
SOUTHEAST IDAHO


CITY           SKY/WX    TMP DP  RH WIND       PRES   REMARKS
IDAHO FALLS    CLOUDY    55  41  59 E5        29.84S
POCATELLO      LGT RAIN  56  41  57 NW13      29.80R
REXBURG        LGT RAIN  51  40  65 E9        29.84F
$$

IDZ006-010-011-018-031-032-221400-
CENTRAL IDAHO MOUNTAINS


CITY           SKY/WX    TMP DP  RH WIND       PRES   REMARKS
MCCALL         LGT RAIN  43  32  65 VRB6      29.74R
HAILEY         CLOUDY    54  36  50 N5        29.81F
STANLEY          N/A     41  33  73 S8        29.79F
SALMON         PTCLDY    36  27  69 CALM      29.71S
CHALLIS        MOCLDY    52  31  44 S18G28    29.75S
$$

IDZ002-004-006-007-026-221400-
NORTHERN IDAHO


CITY           SKY/WX    TMP DP  RH WIND       PRES   REMARKS
LEWISTON       LGT RAIN  48  43  82 N6        29.71F
LOWELL           N/A     42  38  85 CALM      29.75R
COEUR D`ALENE  CLOUDY    46  39  76 S13       29.69R
MULLAN PASS    MOCLDY    38  26  62 W5        29.68F WCI  34
$$



USA.gov is the U.S. government's official web portal to all federal, state and local government web resources and services.